Time,TemperatureF,DewpointF,PressureIn,WindDirection,WindDirectionDegrees,WindSpeedMPH,WindSpeedGustMPH,Humidity,HourlyPrecipIn,Conditions,Clouds,dailyrainin,SoftwareType,DateUTC
2013-06-30 00:03:00,64.4,55.6,30.23,SW,225,0.0,2.2,73,0.00,,,0.00,pywws,2013-06-29 23:03:00,
2013-06-30 00:06:00,64.6,55.7,30.23,SW,225,0.0,1.6,73,0.00,,,0.00,pywws,2013-06-29 23:06:00,
2013-06-30 00:12:00,64.8,55.9,30.23,North,0,0.0,0.7,73,0.00,,,0.00,pywws,2013-06-29 23:12:00,
2013-06-30 00:18:00,64.9,56.4,30.23,North,0,0.0,0.7,74,0.00,,,0.00,pywws,2013-06-29 23:18:00,
2013-06-30 00:23:00,65.1,56.6,30.23,SW,225,0.0,1.6,74,0.00,,,0.00,pywws,2013-06-29 23:23:00,
2013-06-30 00:29:00,65.1,56.6,30.23,West,270,2.2,5.4,74,0.00,,,0.00,pywws,2013-06-29 23:29:00,
2013-06-30 00:34:00,65.1,56.6,30.23,SW,225,0.0,1.6,74,0.00,,,0.00,pywws,2013-06-29 23:34:00,
2013-06-30 00:40:00,65.1,57.0,30.23,SW,225,0.0,1.6,75,0.00,,,0.00,pywws,2013-06-29 23:40:00,
2013-06-30 00:45:00,65.1,57.4,30.22,NW,315,0.7,2.2,76,0.00,,,0.00,pywws,2013-06-29 23:45:00,
2013-06-30 00:50:00,65.1,57.4,30.23,SW,225,0.7,3.8,76,0.00,,,0.00,pywws,2013-06-29 23:50:00,
2013-06-30 00:56:00,64.9,57.2,30.23,NW,315,0.0,1.6,76,0.00,,,0.00,pywws,2013-06-29 23:56:00,
2013-06-30 01:01:00,64.9,57.5,30.23,NW,315,0.7,2.2,77,0.00,,,0.00,pywws,2013-06-30 00:01:00,
2013-06-30 01:06:00,64.8,57.4,30.23,SW,225,0.7,3.1,77,0.00,,,0.00,pywws,2013-06-30 00:06:00,
2013-06-30 01:12:00,64.8,57.4,30.23,West,270,0.7,3.1,77,0.00,,,0.00,pywws,2013-06-30 00:12:00,
2013-06-30 01:18:00,64.6,57.6,30.23,SW,225,1.6,3.1,78,0.00,,,0.00,pywws,2013-06-30 00:18:00,
2013-06-30 01:23:00,64.6,57.9,30.23,West,270,0.0,2.2,79,0.00,,,0.00,pywws,2013-06-30 00:23:00,
2013-06-30 01:29:00,64.6,57.9,30.23,SW,225,1.6,3.1,79,0.00,,,0.00,pywws,2013-06-30 00:29:00,
2013-06-30 01:34:00,64.4,57.7,30.23,SW,225,0.0,1.6,79,0.00,,,0.00,pywws,2013-06-30 00:34:00,
2013-06-30 01:40:00,64.6,57.9,30.23,East,90,0.7,2.2,79,0.00,,,0.00,pywws,2013-06-30 00:40:00,
2013-06-30 01:45:00,64.6,57.9,30.23,SW,225,0.7,2.2,79,0.00,,,0.00,pywws,2013-06-30 00:45:00,
2013-06-30 01:50:00,64.6,58.3,30.23,SW,225,0.7,3.1,80,0.00,,,0.00,pywws,2013-06-30 00:50:00,
2013-06-30 01:55:00,64.6,58.3,30.23,South,180,0.7,3.1,80,0.00,,,0.00,pywws,2013-06-30 00:55:00,
2013-06-30 02:00:00,64.6,58.3,30.23,West,270,0.0,1.6,80,0.00,,,0.00,pywws,2013-06-30 01:00:00,
2013-06-30 02:06:00,64.6,58.3,30.23,North,0,0.0,2.2,80,0.00,,,0.00,pywws,2013-06-30 01:06:00,
2013-06-30 02:11:00,64.4,58.4,30.22,SW,225,1.6,2.2,81,0.00,,,0.00,pywws,2013-06-30 01:11:00,
2013-06-30 02:17:00,64.4,58.1,30.22,SW,225,0.0,1.6,80,0.00,,,0.00,pywws,2013-06-30 01:17:00,
2013-06-30 02:22:00,64.4,58.4,30.22,SW,225,0.0,1.6,81,0.00,,,0.00,pywws,2013-06-30 01:22:00,
2013-06-30 02:28:00,64.4,58.4,30.22,North,0,0.0,0.7,81,0.00,,,0.00,pywws,2013-06-30 01:28:00,
2013-06-30 02:34:00,64.4,58.8,30.22,West,270,1.6,4.5,82,0.00,,,0.00,pywws,2013-06-30 01:34:00,
2013-06-30 02:39:00,64.2,58.6,30.22,SE,135,0.7,3.1,82,0.00,,,0.00,pywws,2013-06-30 01:39:00,
2013-06-30 02:45:00,64.0,58.4,30.22,North,0,0.7,3.1,82,0.00,,,0.00,pywws,2013-06-30 01:45:00,
2013-06-30 02:50:00,64.0,58.8,30.22,SW,225,0.7,1.6,83,0.00,,,0.00,pywws,2013-06-30 01:50:00,
2013-06-30 02:55:00,63.7,58.8,30.22,North,0,0.7,1.6,84,0.00,,,0.00,pywws,2013-06-30 01:55:00,
2013-06-30 03:01:00,63.3,58.4,30.21,North,0,0.7,4.5,84,0.00,,,0.00,pywws,2013-06-30 02:01:00,
2013-06-30 03:06:00,63.1,58.6,30.21,South,180,0.7,3.1,85,0.00,,,0.00,pywws,2013-06-30 02:06:00,
2013-06-30 03:12:00,62.8,58.5,30.21,SSE,158,0.0,3.1,86,0.00,,,0.00,pywws,2013-06-30 02:12:00,
2013-06-30 03:18:00,62.6,58.3,30.22,SW,225,1.6,3.8,86,0.00,,,0.00,pywws,2013-06-30 02:18:00,
2013-06-30 03:23:00,62.4,58.5,30.21,SW,225,0.7,2.2,87,0.00,,,0.00,pywws,2013-06-30 02:23:00,
2013-06-30 03:29:00,62.2,58.3,30.21,South,180,0.7,2.2,87,0.00,,,0.00,pywws,2013-06-30 02:29:00,
2013-06-30 03:34:00,62.1,58.5,30.21,West,270,0.7,2.2,88,0.00,,,0.00,pywws,2013-06-30 02:34:00,
2013-06-30 03:40:00,61.7,58.1,30.21,SW,225,0.0,2.2,88,0.00,,,0.00,pywws,2013-06-30 02:40:00,
2013-06-30 03:46:00,61.5,57.9,30.21,SW,225,0.7,2.2,88,0.00,,,0.00,pywws,2013-06-30 02:46:00,
2013-06-30 03:51:00,61.2,57.9,30.20,NW,315,0.7,3.1,89,0.00,,,0.00,pywws,2013-06-30 02:51:00,
2013-06-30 03:57:00,61.0,58.0,30.21,NW,315,0.0,0.7,90,0.00,,,0.00,pywws,2013-06-30 02:57:00,
2013-06-30 04:02:00,60.8,57.8,30.20,West,270,1.6,3.8,90,0.00,,,0.00,pywws,2013-06-30 03:02:00,
2013-06-30 04:04:00,60.8,57.8,30.20,West,270,0.0,1.6,90,0.00,,,0.00,pywws,2013-06-30 03:04:00,
2013-06-30 04:10:00,60.4,57.8,30.20,West,270,0.7,3.1,91,0.00,,,0.00,pywws,2013-06-30 03:10:00,
2013-06-30 04:15:00,60.4,57.8,30.20,SW,225,0.0,0.7,91,0.00,,,0.00,pywws,2013-06-30 03:15:00,
2013-06-30 04:20:00,60.1,57.7,30.20,SW,225,0.0,1.6,92,0.00,,,0.00,pywws,2013-06-30 03:20:00,
2013-06-30 04:26:00,59.9,57.6,30.21,SW,225,0.7,2.2,92,0.00,,,0.00,pywws,2013-06-30 03:26:00,
2013-06-30 04:31:00,59.5,57.2,30.20,SE,135,0.0,1.6,92,0.00,,,0.00,pywws,2013-06-30 03:31:00,
2013-06-30 04:37:00,59.4,57.3,30.20,South,180,0.0,0.7,93,0.00,,,0.00,pywws,2013-06-30 03:37:00,
2013-06-30 04:42:00,59.2,57.2,30.20,South,180,0.0,0.0,93,0.00,,,0.00,pywws,2013-06-30 03:42:00,
2013-06-30 04:48:00,59.0,57.3,30.20,South,180,0.0,0.7,94,0.00,,,0.00,pywws,2013-06-30 03:48:00,
2013-06-30 04:54:00,58.8,57.1,30.20,SE,135,0.0,1.6,94,0.00,,,0.00,pywws,2013-06-30 03:54:00,
2013-06-30 04:59:00,58.5,56.7,30.21,South,180,0.0,0.7,94,0.00,,,0.00,pywws,2013-06-30 03:59:00,
2013-06-30 05:01:00,58.3,56.6,30.20,SW,225,0.0,0.7,94,0.00,,,0.00,pywws,2013-06-30 04:01:00,
2013-06-30 05:02:00,58.3,56.6,30.20,SE,135,0.0,0.0,94,0.00,,,0.00,pywws,2013-06-30 04:02:00,
2013-06-30 05:03:00,58.3,56.6,30.20,SW,225,0.0,1.6,94,0.00,,,0.00,pywws,2013-06-30 04:03:00,
2013-06-30 05:07:00,58.3,56.9,30.20,South,180,0.0,1.6,95,0.00,,,0.00,pywws,2013-06-30 04:07:00,
2013-06-30 05:13:00,58.3,56.9,30.20,West,270,0.0,2.2,95,0.00,,,0.00,pywws,2013-06-30 04:13:00,
2013-06-30 05:18:00,58.3,57.1,30.20,SSE,158,0.0,2.2,96,0.00,,,0.00,pywws,2013-06-30 04:18:00,
2013-06-30 05:24:00,58.5,57.3,30.21,West,270,0.7,2.2,96,0.00,,,0.00,pywws,2013-06-30 04:24:00,
2013-06-30 05:30:00,58.5,57.6,30.20,South,180,0.0,1.6,97,0.00,,,0.00,pywws,2013-06-30 04:30:00,
2013-06-30 05:35:00,58.5,57.6,30.20,NE,45,0.7,2.2,97,0.00,,,0.00,pywws,2013-06-30 04:35:00,
2013-06-30 05:40:00,58.5,57.6,30.20,SW,225,0.0,1.6,97,0.00,,,0.00,pywws,2013-06-30 04:40:00,
2013-06-30 05:46:00,58.6,57.8,30.20,South,180,0.0,1.6,97,0.00,,,0.00,pywws,2013-06-30 04:46:00,
2013-06-30 05:51:00,58.8,58.0,30.20,NW,315,0.0,0.7,97,0.00,,,0.00,pywws,2013-06-30 04:51:00,
2013-06-30 05:57:00,59.0,58.4,30.20,SW,225,0.7,1.6,98,0.00,,,0.00,pywws,2013-06-30 04:57:00,
2013-06-30 06:02:00,59.4,58.8,30.20,South,180,0.0,0.0,98,0.00,,,0.00,pywws,2013-06-30 05:02:00,
2013-06-30 06:08:00,59.5,59.0,30.20,South,180,1.6,3.8,98,0.00,,,0.00,pywws,2013-06-30 05:08:00,
2013-06-30 06:14:00,59.9,59.3,30.20,South,180,0.7,3.1,98,0.00,,,0.00,pywws,2013-06-30 05:14:00,
2013-06-30 06:19:00,60.3,59.4,30.20,South,180,0.7,3.1,97,0.00,,,0.00,pywws,2013-06-30 05:19:00,
2013-06-30 06:25:00,60.6,59.8,30.20,SW,225,0.0,2.2,97,0.00,,,0.00,pywws,2013-06-30 05:25:00,
2013-06-30 06:30:00,60.8,59.9,30.20,South,180,0.7,1.6,97,0.00,,,0.00,pywws,2013-06-30 05:30:00,
2013-06-30 06:34:00,61.0,59.8,30.20,West,270,0.7,1.6,96,0.00,,,0.00,pywws,2013-06-30 05:34:00,
2013-06-30 06:39:00,61.3,59.9,30.20,NW,315,0.0,1.6,95,0.00,,,0.00,pywws,2013-06-30 05:39:00,
2013-06-30 06:44:00,61.7,60.3,30.20,SW,225,1.6,3.1,95,0.00,,,0.00,pywws,2013-06-30 05:44:00,
2013-06-30 06:50:00,63.7,61.9,30.20,SE,135,0.0,1.6,94,0.00,,,0.00,pywws,2013-06-30 05:50:00,
2013-06-30 06:55:00,65.5,62.5,30.20,West,270,0.0,2.2,90,0.00,,,0.00,pywws,2013-06-30 05:55:00,
2013-06-30 07:00:00,66.7,62.1,30.20,NE,45,0.7,1.6,85,0.00,,,0.00,pywws,2013-06-30 06:00:00,
2013-06-30 07:05:00,67.5,60.7,30.20,SSE,158,0.7,3.1,79,0.00,,,0.00,pywws,2013-06-30 06:05:00,
2013-06-30 07:10:00,67.6,60.2,30.20,SW,225,2.2,5.4,77,0.00,,,0.00,pywws,2013-06-30 06:10:00,
2013-06-30 07:15:00,67.8,60.3,30.20,SW,225,0.7,2.2,77,0.00,,,0.00,pywws,2013-06-30 06:15:00,
2013-06-30 07:20:00,68.2,59.9,30.20,West,270,0.7,3.8,75,0.00,,,0.00,pywws,2013-06-30 06:20:00,
2013-06-30 07:26:00,68.2,59.9,30.20,SSE,158,1.6,3.8,75,0.00,,,0.00,pywws,2013-06-30 06:26:00,
2013-06-30 07:31:00,68.9,60.3,30.21,South,180,2.2,5.4,74,0.00,,,0.00,pywws,2013-06-30 06:31:00,
2013-06-30 07:37:00,69.8,60.7,30.21,North,0,0.7,1.6,73,0.00,,,0.00,pywws,2013-06-30 06:37:00,
2013-06-30 07:42:00,70.3,60.1,30.20,NW,315,0.7,2.2,70,0.00,,,0.00,pywws,2013-06-30 06:42:00,
2013-06-30 07:48:00,69.6,59.4,30.20,SW,225,0.7,2.2,70,0.00,,,0.00,pywws,2013-06-30 06:48:00,
2013-06-30 07:54:00,68.5,59.5,30.21,North,0,0.7,3.8,73,0.00,,,0.00,pywws,2013-06-30 06:54:00,
2013-06-30 07:59:00,68.5,59.5,30.21,SW,225,1.6,3.8,73,0.00,,,0.00,pywws,2013-06-30 06:59:00,
2013-06-30 08:05:00,68.5,59.9,30.21,West,270,1.6,2.2,74,0.00,,,0.00,pywws,2013-06-30 07:05:00,
2013-06-30 08:10:00,68.7,59.7,30.20,West,270,1.6,5.4,73,0.00,,,0.00,pywws,2013-06-30 07:10:00,
2013-06-30 08:15:00,68.4,59.7,30.21,South,180,2.2,4.5,74,0.00,,,0.00,pywws,2013-06-30 07:15:00,
2013-06-30 08:20:00,68.5,59.9,30.20,SW,225,2.2,5.4,74,0.00,,,0.00,pywws,2013-06-30 07:20:00,
2013-06-30 08:26:00,70.3,60.5,30.21,North,0,1.6,4.5,71,0.00,,,0.00,pywws,2013-06-30 07:26:00,
2013-06-30 08:31:00,71.1,60.0,30.21,West,270,1.6,4.5,68,0.00,,,0.00,pywws,2013-06-30 07:31:00,
2013-06-30 08:37:00,71.1,60.4,30.21,North,0,1.6,3.8,69,0.00,,,0.00,pywws,2013-06-30 07:37:00,
2013-06-30 08:43:00,70.5,59.8,30.20,NW,315,3.1,5.4,69,0.00,,,0.00,pywws,2013-06-30 07:43:00,
2013-06-30 08:48:00,70.2,60.3,30.21,NW,315,0.7,3.1,71,0.00,,,0.00,pywws,2013-06-30 07:48:00,
2013-06-30 08:54:00,71.8,60.2,30.21,SW,225,1.6,4.5,67,0.00,,,0.00,pywws,2013-06-30 07:54:00,
2013-06-30 08:59:00,72.3,59.0,30.20,South,180,1.6,4.5,63,0.00,,,0.00,pywws,2013-06-30 07:59:00,
2013-06-30 09:05:00,73.0,59.2,30.20,NW,315,2.2,5.4,62,0.00,,,0.00,pywws,2013-06-30 08:05:00,
2013-06-30 09:10:00,73.0,59.2,30.20,NW,315,1.6,6.0,62,0.00,,,0.00,pywws,2013-06-30 08:10:00,
2013-06-30 09:15:00,73.9,60.1,30.21,NW,315,1.6,3.1,62,0.00,,,0.00,pywws,2013-06-30 08:15:00,
2013-06-30 09:20:00,74.8,59.5,30.20,North,0,0.7,2.2,59,0.00,,,0.00,pywws,2013-06-30 08:20:00,
2013-06-30 09:26:00,75.0,59.7,30.20,South,180,0.7,3.1,59,0.00,,,0.00,pywws,2013-06-30 08:26:00,
2013-06-30 09:31:00,74.8,59.1,30.20,SE,135,1.6,3.1,58,0.00,,,0.00,pywws,2013-06-30 08:31:00,
2013-06-30 09:37:00,75.4,59.1,30.20,SW,225,2.2,5.4,57,0.00,,,0.00,pywws,2013-06-30 08:37:00,
2013-06-30 09:42:00,76.5,60.6,30.20,West,270,0.7,3.8,58,0.00,,,0.00,pywws,2013-06-30 08:42:00,
2013-06-30 09:48:00,77.2,60.2,30.20,SSE,158,0.7,3.8,56,0.00,,,0.00,pywws,2013-06-30 08:48:00,
2013-06-30 09:54:00,77.9,59.9,30.19,SE,135,3.1,8.3,54,0.00,,,0.00,pywws,2013-06-30 08:54:00,
2013-06-30 09:59:00,78.1,60.6,30.19,SW,225,0.7,3.1,55,0.00,,,0.00,pywws,2013-06-30 08:59:00,
2013-06-30 10:05:00,78.6,59.5,30.19,WNW,293,2.2,3.8,52,0.00,,,0.00,pywws,2013-06-30 09:05:00,
2013-06-30 10:10:00,78.6,59.0,30.19,NW,315,1.6,3.8,51,0.00,,,0.00,pywws,2013-06-30 09:10:00,
2013-06-30 10:15:00,79.2,61.1,30.19,South,180,0.7,2.2,54,0.00,,,0.00,pywws,2013-06-30 09:15:00,
2013-06-30 10:20:00,78.8,59.1,30.19,South,180,1.6,3.8,51,0.00,,,0.00,pywws,2013-06-30 09:20:00,
2013-06-30 10:25:00,78.4,60.4,30.19,East,90,1.6,3.8,54,0.00,,,0.00,pywws,2013-06-30 09:25:00,
2013-06-30 10:30:00,78.1,59.5,30.19,South,180,2.2,4.5,53,0.00,,,0.00,pywws,2013-06-30 09:30:00,
2013-06-30 10:35:00,78.1,60.1,30.19,SW,225,3.1,9.2,54,0.00,,,0.00,pywws,2013-06-30 09:35:00,
2013-06-30 10:40:00,78.6,60.0,30.18,SE,135,1.6,5.4,53,0.00,,,0.00,pywws,2013-06-30 09:40:00,
2013-06-30 10:45:00,79.0,59.8,30.18,NW,315,1.6,4.5,52,0.00,,,0.00,pywws,2013-06-30 09:45:00,
2013-06-30 10:50:00,77.9,59.9,30.18,SW,225,2.2,6.0,54,0.00,,,0.00,pywws,2013-06-30 09:50:00,
2013-06-30 10:55:00,78.3,60.7,30.17,South,180,0.7,3.8,55,0.00,,,0.00,pywws,2013-06-30 09:55:00,
2013-06-30 11:00:00,79.0,59.8,30.17,South,180,3.8,6.0,52,0.00,,,0.00,pywws,2013-06-30 10:00:00,
2013-06-30 11:05:00,79.7,59.4,30.17,SW,225,2.2,7.6,50,0.00,,,0.00,pywws,2013-06-30 10:05:00,
2013-06-30 11:10:00,80.2,59.3,30.17,East,90,3.8,7.6,49,0.00,,,0.00,pywws,2013-06-30 10:10:00,
2013-06-30 11:15:00,79.7,58.2,30.17,NW,315,4.5,10.7,48,0.00,,,0.00,pywws,2013-06-30 10:15:00,
2013-06-30 11:21:00,79.9,58.4,30.16,NE,45,4.5,9.2,48,0.00,,,0.00,pywws,2013-06-30 10:21:00,
2013-06-30 11:26:00,80.2,58.2,30.16,SW,225,3.1,9.8,47,0.00,,,0.00,pywws,2013-06-30 10:26:00,
2013-06-30 11:32:00,80.1,57.4,30.16,NW,315,3.8,14.5,46,0.00,,,0.00,pywws,2013-06-30 10:32:00,
2013-06-30 11:38:00,81.0,57.6,30.16,SSE,158,3.8,10.7,45,0.00,,,0.00,pywws,2013-06-30 10:38:00,
2013-06-30 11:43:00,79.2,57.8,30.16,East,90,2.2,7.6,48,0.00,,,0.00,pywws,2013-06-30 10:43:00,
2013-06-30 11:49:00,79.5,58.7,30.16,NW,315,3.8,6.9,49,0.00,,,0.00,pywws,2013-06-30 10:49:00,
2013-06-30 11:54:00,80.4,57.1,30.16,South,180,5.4,11.4,45,0.00,,,0.00,pywws,2013-06-30 10:54:00,
2013-06-30 12:00:00,81.3,57.9,30.15,South,180,3.1,6.0,45,0.00,,,0.00,pywws,2013-06-30 11:00:00,
2013-06-30 12:06:00,80.2,57.6,30.15,NW,315,3.8,7.6,46,0.00,,,0.00,pywws,2013-06-30 11:06:00,
2013-06-30 12:11:00,80.1,59.2,30.15,South,180,3.8,9.8,49,0.00,,,0.00,pywws,2013-06-30 11:11:00,
2013-06-30 12:17:00,81.1,57.1,30.15,South,180,3.8,6.0,44,0.00,,,0.00,pywws,2013-06-30 11:17:00,
2013-06-30 12:22:00,81.5,57.5,30.15,West,270,2.2,5.4,44,0.00,,,0.00,pywws,2013-06-30 11:22:00,
2013-06-30 12:28:00,81.7,57.6,30.15,NE,45,2.2,8.3,44,0.00,,,0.00,pywws,2013-06-30 11:28:00,
2013-06-30 12:34:00,82.4,56.3,30.14,East,90,4.5,11.4,41,0.00,,,0.00,pywws,2013-06-30 11:34:00,
2013-06-30 12:39:00,82.6,57.1,30.14,East,90,1.6,5.4,42,0.00,,,0.00,pywws,2013-06-30 11:39:00,
2013-06-30 12:45:00,81.7,57.6,30.14,East,90,2.2,5.4,44,0.00,,,0.00,pywws,2013-06-30 11:45:00,
2013-06-30 12:50:00,82.6,57.1,30.14,East,90,3.1,9.8,42,0.00,,,0.00,pywws,2013-06-30 11:50:00,
2013-06-30 12:55:00,82.6,56.5,30.14,West,270,2.2,6.9,41,0.00,,,0.00,pywws,2013-06-30 11:55:00,
2013-06-30 13:01:00,83.7,55.3,30.14,SW,225,5.4,12.1,38,0.00,,,0.00,pywws,2013-06-30 12:01:00,
2013-06-30 13:06:00,83.7,56.0,30.14,South,180,3.1,5.4,39,0.00,,,0.00,pywws,2013-06-30 12:06:00,
2013-06-30 13:12:00,83.1,55.6,30.13,South,180,3.1,7.6,39,0.00,,,0.00,pywws,2013-06-30 12:12:00,
2013-06-30 13:18:00,83.1,55.6,30.13,SE,135,5.4,8.3,39,0.00,,,0.00,pywws,2013-06-30 12:18:00,
2013-06-30 13:23:00,82.8,54.5,30.13,SW,225,2.2,6.9,38,0.00,,,0.00,pywws,2013-06-30 12:23:00,
2013-06-30 13:29:00,83.3,55.0,30.13,SW,225,3.1,8.3,38,0.00,,,0.00,pywws,2013-06-30 12:29:00,
2013-06-30 13:34:00,83.3,55.0,30.13,North,0,3.1,6.0,38,0.00,,,0.00,pywws,2013-06-30 12:34:00,
2013-06-30 13:40:00,84.2,54.3,30.13,East,90,3.8,7.6,36,0.00,,,0.00,pywws,2013-06-30 12:40:00,
2013-06-30 13:45:00,84.6,53.9,30.12,SW,225,3.8,8.3,35,0.00,,,0.00,pywws,2013-06-30 12:45:00,
2013-06-30 13:50:00,84.6,55.4,30.12,NW,315,4.5,9.8,37,0.00,,,0.00,pywws,2013-06-30 12:50:00,
2013-06-30 13:55:00,83.5,56.6,30.12,East,90,4.5,7.6,40,0.00,,,0.00,pywws,2013-06-30 12:55:00,
2013-06-30 14:01:00,83.8,56.2,30.12,South,180,2.2,4.5,39,0.00,,,0.00,pywws,2013-06-30 13:01:00,
2013-06-30 14:06:00,83.8,55.5,30.11,South,180,6.9,15.2,38,0.00,,,0.00,pywws,2013-06-30 13:06:00,
2013-06-30 14:12:00,83.8,54.8,30.11,NW,315,6.0,13.6,37,0.00,,,0.00,pywws,2013-06-30 13:12:00,
2013-06-30 14:18:00,84.0,54.9,30.11,South,180,0.7,3.8,37,0.00,,,0.00,pywws,2013-06-30 13:18:00,
2013-06-30 14:23:00,85.5,54.7,30.11,West,270,5.4,9.8,35,0.00,,,0.00,pywws,2013-06-30 13:23:00,
2013-06-30 14:29:00,84.9,55.0,30.11,SW,225,3.8,6.9,36,0.00,,,0.00,pywws,2013-06-30 13:29:00,
2013-06-30 14:34:00,84.6,55.4,30.11,South,180,3.8,8.3,37,0.00,,,0.00,pywws,2013-06-30 13:34:00,
2013-06-30 14:40:00,84.6,56.1,30.11,West,270,3.1,6.0,38,0.00,,,0.00,pywws,2013-06-30 13:40:00,
2013-06-30 14:45:00,83.8,56.2,30.10,NW,315,1.6,3.8,39,0.00,,,0.00,pywws,2013-06-30 13:45:00,
2013-06-30 14:50:00,84.7,56.3,30.10,NW,315,3.1,6.0,38,0.00,,,0.00,pywws,2013-06-30 13:50:00,
2013-06-30 14:55:00,84.9,56.4,30.10,West,270,0.7,3.1,38,0.00,,,0.00,pywws,2013-06-30 13:55:00,
2013-06-30 15:00:00,83.8,56.2,30.11,SW,225,3.1,10.7,39,0.00,,,0.00,pywws,2013-06-30 14:00:00,
2013-06-30 15:05:00,84.0,57.1,30.10,South,180,3.8,6.0,40,0.00,,,0.00,pywws,2013-06-30 14:05:00,
2013-06-30 15:10:00,84.9,56.4,30.10,SW,225,5.4,7.6,38,0.00,,,0.00,pywws,2013-06-30 14:10:00,
2013-06-30 15:16:00,84.6,57.5,30.10,West,270,3.1,7.6,40,0.00,,,0.00,pywws,2013-06-30 14:16:00,
2013-06-30 15:22:00,84.0,57.8,30.10,SE,135,3.1,8.3,41,0.00,,,0.00,pywws,2013-06-30 14:22:00,
2013-06-30 15:27:00,84.2,57.2,30.10,SE,135,3.8,9.2,40,0.00,,,0.00,pywws,2013-06-30 14:27:00,
2013-06-30 15:33:00,83.3,57.1,30.10,NW,315,3.1,5.4,41,0.00,,,0.00,pywws,2013-06-30 14:33:00,
2013-06-30 15:38:00,82.4,56.3,30.10,West,270,3.8,9.2,41,0.00,,,0.00,pywws,2013-06-30 14:38:00,
2013-06-30 15:44:00,83.1,58.3,30.09,SW,225,2.2,6.0,43,0.00,,,0.00,pywws,2013-06-30 14:44:00,
2013-06-30 15:50:00,83.8,56.2,30.09,South,180,3.1,9.2,39,0.00,,,0.00,pywws,2013-06-30 14:50:00,
2013-06-30 15:55:00,83.1,56.3,30.09,SW,225,3.1,6.0,40,0.00,,,0.00,pywws,2013-06-30 14:55:00,
2013-06-30 16:00:00,82.6,57.8,30.09,SW,225,2.2,6.0,43,0.00,,,0.00,pywws,2013-06-30 15:00:00,
2013-06-30 16:05:00,83.5,56.6,30.09,SSE,158,3.1,6.0,40,0.00,,,0.00,pywws,2013-06-30 15:05:00,
2013-06-30 16:10:00,82.8,57.3,30.09,West,270,2.2,3.8,42,0.00,,,0.00,pywws,2013-06-30 15:10:00,
2013-06-30 16:15:00,82.9,56.1,30.08,SW,225,3.8,6.9,40,0.00,,,0.00,pywws,2013-06-30 15:15:00,
2013-06-30 16:21:00,82.9,56.1,30.08,SW,225,4.5,10.7,40,0.00,,,0.00,pywws,2013-06-30 15:21:00,
2013-06-30 16:26:00,83.8,55.5,30.08,West,270,3.1,6.0,38,0.00,,,0.00,pywws,2013-06-30 15:26:00,
2013-06-30 16:32:00,84.4,55.2,30.08,West,270,3.1,9.2,37,0.00,,,0.00,pywws,2013-06-30 15:32:00,
2013-06-30 16:38:00,84.7,54.8,30.08,West,270,4.5,10.7,36,0.00,,,0.00,pywws,2013-06-30 15:38:00,
2013-06-30 16:43:00,84.0,55.6,30.08,South,180,3.8,10.7,38,0.00,,,0.00,pywws,2013-06-30 15:43:00,
2013-06-30 16:49:00,83.1,55.6,30.07,NE,45,2.2,6.0,39,0.00,,,0.00,pywws,2013-06-30 15:49:00,
2013-06-30 16:55:00,82.6,55.8,30.07,South,180,6.0,13.6,40,0.00,,,0.00,pywws,2013-06-30 15:55:00,
2013-06-30 17:00:00,82.9,56.1,30.07,West,270,3.8,8.3,40,0.00,,,0.00,pywws,2013-06-30 16:00:00,
2013-06-30 17:05:00,83.3,56.4,30.07,SW,225,2.2,6.9,40,0.00,,,0.00,pywws,2013-06-30 16:05:00,
2013-06-30 17:10:00,83.5,55.2,30.06,West,270,3.1,7.6,38,0.00,,,0.00,pywws,2013-06-30 16:10:00,
2013-06-30 17:15:00,83.7,56.7,30.06,SE,135,3.8,8.3,40,0.00,,,0.00,pywws,2013-06-30 16:15:00,
2013-06-30 17:20:00,83.7,55.3,30.06,North,0,3.1,8.3,38,0.00,,,0.00,pywws,2013-06-30 16:20:00,
2013-06-30 17:25:00,83.3,55.7,30.06,NW,315,2.2,5.4,39,0.00,,,0.00,pywws,2013-06-30 16:25:00,
2013-06-30 17:30:00,83.7,55.3,30.05,North,0,3.8,7.6,38,0.00,,,0.00,pywws,2013-06-30 16:30:00,
2013-06-30 17:36:00,83.3,55.7,30.06,West,270,4.5,8.3,39,0.00,,,0.00,pywws,2013-06-30 16:36:00,
2013-06-30 17:42:00,83.3,55.7,30.05,NW,315,4.5,9.2,39,0.00,,,0.00,pywws,2013-06-30 16:42:00,
2013-06-30 17:47:00,83.1,56.9,30.06,South,180,1.6,3.1,41,0.00,,,0.00,pywws,2013-06-30 16:47:00,
2013-06-30 17:53:00,82.8,55.2,30.05,SW,225,3.8,11.4,39,0.00,,,0.00,pywws,2013-06-30 16:53:00,
2013-06-30 17:58:00,82.6,56.5,30.05,NW,315,3.8,7.6,41,0.00,,,0.00,pywws,2013-06-30 16:58:00,
2013-06-30 18:05:00,81.9,55.8,30.05,WNW,293,2.2,6.9,41,0.00,,,0.00,pywws,2013-06-30 17:05:00,
2013-06-30 18:10:00,82.0,54.6,30.05,NE,45,1.6,6.9,39,0.00,,,0.00,pywws,2013-06-30 17:10:00,
2013-06-30 18:15:00,82.0,53.9,30.04,SE,135,4.5,10.7,38,0.00,,,0.00,pywws,2013-06-30 17:15:00,
2013-06-30 18:20:00,81.7,55.7,30.05,South,180,3.1,6.0,41,0.00,,,0.00,pywws,2013-06-30 17:20:00,
2013-06-30 18:25:00,82.4,57.0,30.05,NW,315,3.1,6.0,42,0.00,,,0.00,pywws,2013-06-30 17:25:00,
2013-06-30 18:30:00,81.9,55.8,30.04,SW,225,3.1,5.4,41,0.00,,,0.00,pywws,2013-06-30 17:30:00,
2013-06-30 18:36:00,81.3,56.0,30.04,SE,135,3.8,9.8,42,0.00,,,0.00,pywws,2013-06-30 17:36:00,
2013-06-30 18:42:00,79.9,56.0,30.04,SE,135,3.1,6.0,44,0.00,,,0.00,pywws,2013-06-30 17:42:00,
2013-06-30 18:47:00,78.6,53.6,30.04,NW,315,3.8,7.6,42,0.00,,,0.00,pywws,2013-06-30 17:47:00,
2013-06-30 18:53:00,78.3,53.9,30.04,SE,135,4.5,12.1,43,0.00,,,0.00,pywws,2013-06-30 17:53:00,
2013-06-30 18:59:00,77.5,54.5,30.04,SW,225,2.2,5.4,45,0.00,,,0.00,pywws,2013-06-30 17:59:00,
2013-06-30 19:04:00,77.0,53.4,30.04,West,270,4.5,8.3,44,0.00,,,0.00,pywws,2013-06-30 18:04:00,
2013-06-30 19:10:00,76.5,52.3,30.05,SE,135,1.6,6.0,43,0.00,,,0.00,pywws,2013-06-30 18:10:00,
2013-06-30 19:15:00,76.3,52.1,30.05,East,90,4.5,9.8,43,0.00,,,0.00,pywws,2013-06-30 18:15:00,
2013-06-30 19:20:00,75.7,51.6,30.04,WNW,293,3.8,8.3,43,0.00,,,0.00,pywws,2013-06-30 18:20:00,
2013-06-30 19:26:00,75.2,52.4,30.05,East,90,3.8,9.2,45,0.00,,,0.00,pywws,2013-06-30 18:26:00,
2013-06-30 19:31:00,74.8,52.7,30.05,NW,315,3.1,6.9,46,0.00,,,0.00,pywws,2013-06-30 18:31:00,
2013-06-30 19:37:00,74.5,52.9,30.05,South,180,6.0,10.7,47,0.00,,,0.00,pywws,2013-06-30 18:37:00,
2013-06-30 19:42:00,73.9,52.4,30.05,South,180,6.0,9.8,47,0.00,,,0.00,pywws,2013-06-30 18:42:00,
2013-06-30 19:48:00,73.4,51.9,30.05,West,270,3.1,6.9,47,0.00,,,0.00,pywws,2013-06-30 18:48:00,
2013-06-30 19:54:00,73.0,52.2,30.05,SW,225,3.8,12.1,48,0.00,,,0.00,pywws,2013-06-30 18:54:00,
2013-06-30 19:59:00,72.7,52.4,30.05,West,270,3.1,9.8,49,0.00,,,0.00,pywws,2013-06-30 18:59:00,
2013-06-30 20:05:00,72.3,53.2,30.05,West,270,1.6,4.5,51,0.00,,,0.00,pywws,2013-06-30 19:05:00,
2013-06-30 20:10:00,72.1,53.5,30.05,NE,45,0.7,2.2,52,0.00,,,0.00,pywws,2013-06-30 19:10:00,
2013-06-30 20:15:00,71.8,53.2,30.05,NW,315,1.6,3.8,52,0.00,,,0.00,pywws,2013-06-30 19:15:00,
2013-06-30 20:20:00,71.6,53.5,30.04,South,180,1.6,4.5,53,0.00,,,0.00,pywws,2013-06-30 19:20:00,
2013-06-30 20:26:00,71.2,53.7,30.05,SW,225,5.4,9.8,54,0.00,,,0.00,pywws,2013-06-30 19:26:00,
2013-06-30 20:31:00,71.1,53.6,30.05,West,270,0.7,4.5,54,0.00,,,0.00,pywws,2013-06-30 19:31:00,
2013-06-30 20:37:00,70.7,53.2,30.05,North,0,3.8,9.2,54,0.00,,,0.00,pywws,2013-06-30 19:37:00,
2013-06-30 20:42:00,70.3,53.4,30.05,NW,315,3.8,8.3,55,0.00,,,0.00,pywws,2013-06-30 19:42:00,
2013-06-30 20:48:00,70.0,53.6,30.05,SW,225,2.2,4.5,56,0.00,,,0.00,pywws,2013-06-30 19:48:00,
2013-06-30 20:54:00,69.6,53.7,30.06,North,0,3.8,6.9,57,0.00,,,0.00,pywws,2013-06-30 19:54:00,
2013-06-30 20:59:00,69.4,54.0,30.06,NW,315,1.6,4.5,58,0.00,,,0.00,pywws,2013-06-30 19:59:00,
2013-06-30 21:05:00,69.3,54.3,30.06,SW,225,2.2,9.8,59,0.00,,,0.00,pywws,2013-06-30 20:05:00,
2013-06-30 21:10:00,69.1,54.1,30.05,South,180,1.6,5.4,59,0.00,,,0.00,pywws,2013-06-30 20:10:00,
2013-06-30 21:15:00,68.7,54.3,30.05,SW,225,2.2,6.9,60,0.00,,,0.00,pywws,2013-06-30 20:15:00,
2013-06-30 21:20:00,68.4,53.9,30.06,SW,225,1.6,4.5,60,0.00,,,0.00,pywws,2013-06-30 20:20:00,
2013-06-30 21:25:00,68.0,54.0,30.06,NE,45,0.0,2.2,61,0.00,,,0.00,pywws,2013-06-30 20:25:00,
2013-06-30 21:30:00,67.8,54.3,30.06,SW,225,1.6,3.8,62,0.00,,,0.00,pywws,2013-06-30 20:30:00,
2013-06-30 21:36:00,67.5,54.4,30.06,SE,135,2.2,4.5,63,0.00,,,0.00,pywws,2013-06-30 20:36:00,
2013-06-30 21:42:00,67.1,54.5,30.06,SW,225,0.7,3.1,64,0.00,,,0.00,pywws,2013-06-30 20:42:00,
2013-06-30 21:47:00,67.1,54.9,30.06,NW,315,2.2,4.5,65,0.00,,,0.00,pywws,2013-06-30 20:47:00,
2013-06-30 21:48:00,66.9,54.8,30.06,SW,225,3.1,8.3,65,0.00,,,0.00,pywws,2013-06-30 20:48:00,
2013-06-30 21:54:00,66.9,55.2,30.06,NW,315,3.1,7.6,66,0.00,,,0.00,pywws,2013-06-30 20:54:00,
2013-06-30 21:59:00,66.9,55.6,30.06,SW,225,3.1,5.4,67,0.00,,,0.00,pywws,2013-06-30 20:59:00,
2013-06-30 22:05:00,66.6,56.1,30.07,East,90,1.6,4.5,69,0.00,,,0.00,pywws,2013-06-30 21:05:00,
2013-06-30 22:10:00,66.4,56.3,30.06,West,270,4.5,8.3,70,0.00,,,0.00,pywws,2013-06-30 21:10:00,
2013-06-30 22:15:00,66.0,55.9,30.07,West,270,2.2,5.4,70,0.00,,,0.00,pywws,2013-06-30 21:15:00,
2013-06-30 22:20:00,65.8,56.2,30.07,North,0,3.8,8.3,71,0.00,,,0.00,pywws,2013-06-30 21:20:00,
2013-06-30 22:26:00,65.7,56.4,30.07,WNW,293,2.2,4.5,72,0.00,,,0.00,pywws,2013-06-30 21:26:00,
2013-06-30 22:31:00,65.5,56.2,30.07,East,90,3.1,7.6,72,0.00,,,0.00,pywws,2013-06-30 21:31:00,
2013-06-30 22:37:00,65.3,56.4,30.07,NW,315,3.1,6.9,73,0.00,,,0.00,pywws,2013-06-30 21:37:00,
2013-06-30 22:42:00,64.9,55.7,30.08,West,270,3.1,6.0,72,0.00,,,0.00,pywws,2013-06-30 21:42:00,
2013-06-30 22:48:00,64.6,55.3,30.08,West,270,3.8,13.0,72,0.00,,,0.00,pywws,2013-06-30 21:48:00,
2013-06-30 22:54:00,64.2,55.0,30.08,South,180,1.6,3.1,72,0.00,,,0.00,pywws,2013-06-30 21:54:00,
2013-06-30 22:59:00,64.0,55.2,30.08,WNW,293,3.1,5.4,73,0.00,,,0.00,pywws,2013-06-30 21:59:00,
2013-06-30 23:05:00,63.9,55.0,30.08,NNW,338,3.1,8.3,73,0.00,,,0.00,pywws,2013-06-30 22:05:00,
2013-06-30 23:10:00,63.5,54.3,30.08,NW,315,3.8,8.3,72,0.00,,,0.00,pywws,2013-06-30 22:10:00,
2013-06-30 23:15:00,63.3,54.1,30.08,North,0,1.6,4.5,72,0.00,,,0.00,pywws,2013-06-30 22:15:00,
2013-06-30 23:20:00,63.1,54.0,30.08,West,270,2.2,6.0,72,0.00,,,0.00,pywws,2013-06-30 22:20:00,
2013-06-30 23:25:00,62.8,53.2,30.07,SW,225,3.1,6.0,71,0.00,,,0.00,pywws,2013-06-30 22:25:00,
2013-06-30 23:30:00,62.6,53.4,30.08,NW,315,3.8,8.3,72,0.00,,,0.00,pywws,2013-06-30 22:30:00,
2013-06-30 23:36:00,62.4,53.3,30.07,West,270,0.7,3.1,72,0.00,,,0.00,pywws,2013-06-30 22:36:00,
2013-06-30 23:42:00,62.1,53.3,30.07,NE,45,2.2,3.8,73,0.00,,,0.00,pywws,2013-06-30 22:42:00,
2013-06-30 23:47:00,61.7,53.0,30.07,North,0,0.7,2.2,73,0.00,,,0.00,pywws,2013-06-30 22:47:00,
2013-06-30 23:53:00,61.3,53.0,30.08,SW,225,2.2,5.4,74,0.00,,,0.00,pywws,2013-06-30 22:53:00,
2013-06-30 23:58:00,61.2,53.2,30.07,NW,315,0.7,3.8,75,0.00,,,0.00,pywws,2013-06-30 22:58:00,